Location: Sihaung
(22.8641°N, 94.0549°E)
Time: 17:48:55
(UTC+00:00)

Cosmos 1140 Rocket - Pass Details

Date: 03 March 2021
Orbit: 745 x 766 km, 74.1° (Epoch: 13 April)

Event Time Altitude Azimuth Distance (km) Brightness Sun altitude
Rises 23:36:56 0° 213° (SSW) 3,216 6.4 -6.8°
Reaches altitude 10° 23:39:29 10° 222° (SW) 2,291 5.6 -6.2°
Maximum altitude 23:44:13 35° 287° (WNW) 1,203 4.1 -5.1°
Drops below altitude 10° 23:48:58 10° 353° (N) 2,288 5.9 -4.0°
Sets 23:51:31 0° 3° (N) 3,211 6.7 -3.4°
